Location: Chmeln�
(49.6483°N, 14.9871°E)
Time: 22:04:40
(UTC+00:00)

CREW DRAGON DEMO-1 DEB - Pass Details

Date: 18 September 2020
Orbit: 361 x 362 km, 51.6° (Epoch: 31 October)

Event Time Altitude Azimuth Distance (km) Brightness Sun altitude
Rises 18:43:49 0° 280° (W) 2,197 8.3 -16.2°
Reaches altitude 10° 18:45:52 10° 284° (WNW) 1,351 6.9 -16.5°
Maximum altitude 18:48:51 58° 5° (N) 432 3.1 -17.0°
Enters shadow 18:49:28 45° 55° (NE) 508 3.2 -17.0°
